This is the latest recevied weather packets stored in our database for station/object XE2VP-WX. If no packets are shown the sender has not sent any weather packets the latest 10 day(s).
| Time | Temp. | Humidity | Pressure | Rain* | Wind** | Luminosity | Snow |
|---|---|---|---|---|---|---|---|
| 1778185314 | 23.89° C | 80% | 943.7 hPa | 4.32 mm | - | 998 W/m² | - |
| 1778185254 | 23.89° C | 79% | 943.7 hPa | 4.32 mm | - | 761 W/m² | - |
| 1778185194 | 23.89° C | 79% | 943.6 hPa | 4.32 mm | - | 358 W/m² | - |
| 1778185134 | 23.89° C | 80% | 943.7 hPa | 4.32 mm | - | 393 W/m² | - |
| 1778185074 | 23.89° C | 80% | 943.9 hPa | 4.32 mm | - | 612 W/m² | - |
| 1778185013 | 23.89° C | 80% | 944 hPa | 4.32 mm | - | 695 W/m² | - |
| 1778184955 | 23.89° C | 79% | 944.1 hPa | 4.32 mm | - | 495 W/m² | - |
| 1778184894 | 23.89° C | 79% | 944.3 hPa | 4.32 mm | - | 690 W/m² | - |
| 1778184835 | 23.89° C | 79% | 944.4 hPa | 4.57 mm | - | 376 W/m² | - |
| 1778184774 | 23.89° C | 79% | 944.5 hPa | 4.57 mm | - | 409 W/m² | - |
| 1778184714 | 24.44° C | 80% | 944.6 hPa | 4.32 mm | - | 419 W/m² | - |
| 1778184655 | 24.44° C | 78% | 944.5 hPa | 4.32 mm | - | 324 W/m² | - |
| 1778184594 | 24.44° C | 80% | 944.5 hPa | 4.32 mm | - | 327 W/m² | - |
| 1778184534 | 24.44° C | 78% | 944.4 hPa | 3.81 mm | - | 337 W/m² | - |
| 1778184475 | 24.44° C | 79% | 944.3 hPa | 3.81 mm | - | 295 W/m² | - |
| 1778184413 | 24.44° C | 79% | 944.3 hPa | 3.56 mm | - | 271 W/m² | - |
| 1778184353 | 24.44° C | 79% | 944.3 hPa | 3.3 mm | - | 212 W/m² | - |
| 1778184293 | 24.44° C | 78% | 944.3 hPa | 3.05 mm | - | 165 W/m² | - |
| 1778184233 | 24.44° C | 78% | 944.3 hPa | 3.05 mm | - | 134 W/m² | - |
| 1778184173 | 24.44° C | 77% | 944.4 hPa | 2.79 mm | - | 116 W/m² | - |
| 1778184113 | 24.44° C | 76% | 944.4 hPa | 2.54 mm | - | 99 W/m² | - |
| 1778184053 | 24.44° C | 77% | 944.4 hPa | 2.29 mm | - | 85 W/m² | - |
| 1778183993 | 24.44° C | 76% | 944.4 hPa | 1.78 mm | - | 75 W/m² | - |
| 1778183933 | 25° C | 76% | 944.5 hPa | 1.78 mm | - | 68 W/m² | - |
| 1778183874 | 25° C | 76% | 944.5 hPa | 1.78 mm | - | 65 W/m² | - |
* Rain latest hour (hover to see other rain measurements)
** Current wind speed in m/s (hover to see current wind gust speed)